Pagrindinis puslapis
METAR-TAF:

METAR-TAF

Oro uostai :

Lusaka, Zambija

platuma: 15-19-51S, ilguma: 028-27-09E, Aukštis: 1152 m

Dabartinis oras

Ataskaita buvo paskelbta 2 valandos ir 6 minutes, ne 20:00 UTC
Vėjas 5 kt iš Rytų/Pietryčių
Temperatūra 19°C
Drėgmė 28%
Slėgis 1022 hPa
Matomumas 10 km arba daugiau
nėra debesų žemiau 1500 m ir nėra kamuolinių lietaus debesų

METAR: FLKK 182000Z 12005KT CAVOK 19/M00 Q1022

Laikas: 00:06 (22:06 UTC)

Prognozė

Ataskaita buvo paskelbta 36 valandos ir 6 minutes, ne 10:00 UTC
Prognozė galioja nuo 17 metu 12 UTC su 18 metu 18 UTC
Vėjas 10 kt iš Rytų/Pietryčių
Matomumas: 9000 m
Nuo 17 metu 1800 UTC
Vėjas 5 kt iš Rytų
Matomumas 10 km arba daugiau
nėra debesų žemiau 1500 m ir nėra kamuolinių lietaus debesų
Tapsmas
nuo 18 metu 04 UTC su 18 metu 06 UTC
Vėjas 10 kt iš Rytų
Matomumas: 8000 m

TAF: FLKK 171000Z 1712/1818 11010KT 9000 NSC FM171800 10005KT CAVOK BECMG 1804/1806 10010KT 8000 NSC

Orai ataskaitas ir orų prognozės (METAR, TAF).

turimą stotys yra geltonos ir raudonos taškus žemėlapyje.

Perkelti pele per norėdami pamatyti stoties vardą.

Tada spustelėkite, norėdami matyti oro stebėjimo ir prognozės.

Norėdami pakeisti žemėlapį: spustelėkite ant žalios mygtukų su juodo kryžiaus žemyn,; žalią mygtuką su brūkšneliu, jei norite nutolinti; arba žalių rodyklių gretimoms žemėlapius.


METAR-TAF: